[[{"header":{"parameterUnit":"m.s-1","parameterCategory":1,"la1":30.2991,"la2":30.254,"lo1":-89.0895,"lo2":-89.0444,"dy":0.0017,"dx":0.0017,"nx":28,"ny":28,"refTime":"2023-10-12T09:00:00:Z","depth":0,"parameterNumber":2,"parameterNumberName":"U-component_of_WINDS"},"data":[0,0,0,0,0,0,0,0,0,0,0,0,0,0,0,0,0,0,0,0,0,0,0,0,0,0,0,0,0,0,0,0,0,0,0,0,0,0,0,0,0,0,0,0,0,0,0,0,0,0,0,0,0,0,0,0,0,0,0.7759,0.7759,0,0.7829,0.783,0.7831,0.7868,0.7868,0.7868,0.7868,0.7945,0.7946,0.7948,0,0,0,0,0,0,0,0,0,0,0,0,0,0.7662,0.7663,0.7759,0.776,0.776,0.7829,0.783,0.7831,0.7868,0.7868,0.7868,0.7868,0.7944,0.7946,0.7949,0,0,0,0,0,0,0,0,0,0,0,0,0,0.7715,0.7664,0.7759,0.7787,0.779,0.7829,0.783,0.7831,0.7868,0.7868,0.7868,0.7868,0.7943,0.7946,0.7949,0.7965,0,0,0.7958,0.7959,0,0,0,0,0,0,0,0,0.7712,0.7719,0.7782,0.7785,0.7789,0.784,0.7824,0.7876,0.7868,0.7839,0.7868,0.7868,0.791,0.7916,0.7929,0.7969,0.7972,0.7958,0.796,0.7961,0.7962,0,0,0,0,0,0,0,0.7708,0.7716,0.7787,0.7783,0.7787,0.7798,0.7806,0.7834,0.7873,0.7841,0.7844,0.7852,0.7912,0.7926,0.7931,0.7973,0.7958,0.7961,0.7963,0.7964,0.8032,0.8032,0,0,0,0,0,0,0.7699,0.7713,0.7784,0.7789,0.775,0.78,0.7808,0.7823,0.7873,0.788,0.7852,0.7853,0.7921,0.7927,0.7934,0.7957,0.7961,0.7964,0.7966,0.8032,0.8032,0.8032,0,0,0,0,0,0,0.7697,0.7705,0.7782,0.7751,0.7762,0.7801,0.7818,0.7825,0.7839,0.7881,0.7888,0.7858,0.7921,0.7929,0.7957,0.796,0.7965,0.7968,0.8032,0.8032,0.8032,0.8002,0,0,0,0,0,0,0.7694,0.7704,0.771,0.7751,0.7763,0.7802,0.7818,0.7826,0.7843,0.7846,0.7889,0.7896,0.7922,0.7952,0.796,0.7964,0.797,0.8032,0.8032,0.8032,0.8003,0.8001,0.8,0,0,0,0,0,0.7691,0.7699,0.771,0.7718,0.7771,0.7802,0.7809,0.7837,0.7843,0.785,0.7877,0.7895,0.7958,0.7955,0.7964,0.7969,0.8032,0.8032,0.8032,0.8004,0.8002,0.8,0,0,0,0,0,0,0.7659,0.7705,0.7717,0.7739,0.7766,0.7808,0.7818,0.7834,0.7861,0.7863,0.7898,0.7907,0.7932,0.7953,0.7949,0.7988,0.7997,0.7999,0.7973,0.7971,0.7969,0.7964,0.7973,0,0,0,0,0,0.7654,0.7674,0.7714,0.773,0.7743,0.7778,0.7793,0.7812,0.7842,0.7854,0.7883,0.7913,0.794,0.7956,0.7983,0.8007,0.8017,0.8015,0.8013,0.8011,0.8013,0.8028,0.8027,0.8032,0.8032,0.8032,0,0,0.7645,0.7673,0.7684,0.7724,0.7748,0.7769,0.7787,0.7809,0.7826,0.7858,0.7885,0.7908,0.7944,0.7969,0.7982,0.7988,0.8014,0.8011,0.801,0.8012,0.8028,0.8027,0.8027,0.8032,0.8032,0.8032,0,0,0.7639,0.7662,0.7678,0.77,0.7735,0.7758,0.7762,0.7802,0.7817,0.7845,0.787,0.7891,0.7936,0.7961,0.798,0.7984,0.8002,0.7992,0.7983,0.7998,0.7997,0.7997,0.8,0.8,0.7993,0.7993,0.7993,0,0.7624,0.7656,0.7684,0.7705,0.7723,0.7751,0.7769,0.779,0.7832,0.7844,0.785,0.7907,0.7933,0.7966,0.7967,0.7981,0.7987,0.7987,0.7995,0.7995,0.7995,0.7998,0.7999,0.7992,0.7992,0.7992,0.7992,0,0.7636,0.7658,0.7667,0.7706,0.7725,0.7744,0.7776,0.7793,0.781,0.7834,0.7863,0.7895,0.7929,0.7938,0.7956,0.7974,0.7976,0.7988,0.7998,0.7993,0.7996,0.7998,0.799,0.799,0.7991,0.7991,0,0,0.7612,0.7666,0.7669,0.7687,0.7728,0.7746,0.7767,0.78,0.7813,0.7842,0.7861,0.7899,0.791,0.7931,0.7952,0.7965,0.7968,0.7975,0.7976,0.7973,0.799,0.7981,0.7982,0.7979,0.798,0.798,0.7987,0,0.7613,0.765,0.7677,0.7705,0.7726,0.7754,0.7772,0.78,0.7823,0.7846,0.7871,0.7898,0.791,0.7923,0.7936,0.7964,0.7972,0.7964,0.8,0.8,0.799,0.7984,0.7975,0.798,0.7989,0.7989,0.7989,0,0.7619,0.7645,0.7675,0.7713,0.7724,0.7739,0.7772,0.7793,0.7826,0.7841,0.7864,0.7886,0.7912,0.7919,0.7955,0.7949,0.7966,0.7982,0.7983,0.7988,0.7995,0.7989,0.7982,0.7983,0.7991,0.7991,0.7991,0,0.76,0.7642,0.7666,0.7681,0.7726,0.7737,0.7757,0.7789,0.7807,0.7836,0.7849,0.788,0.7898,0.7923,0.7953,0.7956,0.7987,0.7996,0.8002,0.8001,0.8008,0.8007,0.8004,0.8017,0.8017,0.8017,0.8017,0,0.7598,0.7615,0.7658,0.7672,0.7693,0.7724,0.7744,0.7767,0.7795,0.7816,0.7842,0.7861,0.79,0.7924,0.7949,0.7976,0.7983,0.7998,0.8004,0.7996,0.7994,0.8007,0.8008,0.8017,0.8017,0.8017,0.8017,0,0.758,0.7609,0.7636,0.7677,0.7688,0.7701,0.7737,0.7753,0.7777,0.7803,0.7811,0.7849,0.7879,0.7912,0.7953,0.797,0.7996,0.8004,0.7984,0.7988,0.7991,0.7991,0.7997,0.8,0.801,0.801,0.801,0,0.7577,0.7591,0.7633,0.7648,0.7667,0.7691,0.7709,0.7741,0.7759,0.7797,0.7809,0.7841,0.7868,0.7915,0.7948,0.798,0.799,0.799,0.7995,0.7987,0.7991,0.799,0.7992,0.7989,0.7988,0.7988,0.7988,0,0.757,0.7584,0.7608,0.7638,0.7659,0.7684,0.7711,0.7722,0.7759,0.7779,0.7809,0.783,0.7872,0.7904,0.794,0.7962,0.7982,0.7986,0.7989,0.7981,0.7969,0.7976,0.798,0.7986,0.7986,0.7986,0.7986,0.7986,0.756,0.7574,0.7606,0.7633,0.7656,0.768,0.7697,0.7723,0.7748,0.7784,0.7801,0.7832,0.7866,0.7916,0.7938,0.7964,0.797,0.7974,0.7975,0.7976,0.7974,0.7964,0.797,0.7971,0.7971,0.7971,0.7971,0,0.7555,0.7577,0.7601,0.7637,0.7658,0.7673,0.7703,0.7721,0.7747,0.7776,0.7802,0.7837,0.7869,0.7903,0.7937,0.7951,0.7961,0.7959,0.7959,0.7964,0.7966,0.7961,0.795,0.795,0.795,0.795,0.795,0.795,0.7555,0.7579,0.7597,0.7633,0.7656,0.7684,0.7701,0.7724,0.7747,0.7785,0.7811,0.7832,0.7865,0.7901,0.7931,0.794,0.7952,0.7947,0.796,0.7962,0.7963,0.7965,0.796,0.7949,0.7949,0.7955,0.7955,0.7955]},{"header":{"parameterUnit":"m.s-1","parameterCategory":1,"la1":30.2991,"la2":30.254,"lo1":-89.0895,"lo2":-89.0444,"dy":0.0017,"dx":0.0017,"nx":28,"ny":28,"refTime":"2023-10-12T09:00:00:Z","depth":0,"parameterNumber":3,"parameterNumberName":"V-component_of_WINDS"},"data":[0,0,0,0,0,0,0,0,0,0,0,0,0,0,0,0,0,0,0,0,0,0,0,0,0,0,0,0,0,0,0,0,0,0,0,0,0,0,0,0,0,0,0,0,0,0,0,0,0,0,0,0,0,0,0,0,0,0,0.5137,0.5135,0,0.5002,0.5,0.4998,0.4886,0.4885,0.4884,0.4882,0.4741,0.4738,0.4735,0,0,0,0,0,0,0,0,0,0,0,0,0,0.5292,0.529,0.5137,0.5135,0.5133,0.5002,0.5,0.4998,0.4886,0.4885,0.4883,0.4882,0.4741,0.4738,0.4735,0,0,0,0,0,0,0,0,0,0,0,0,0,0.5198,0.5289,0.5137,0.5062,0.5054,0.5002,0.5,0.4998,0.4886,0.4885,0.4883,0.4881,0.4743,0.4739,0.4735,0.4746,0,0,0.4722,0.4721,0,0,0,0,0,0,0,0,0.5203,0.5192,0.5075,0.5067,0.5058,0.4959,0.5003,0.4913,0.4887,0.495,0.4882,0.488,0.4814,0.4804,0.4783,0.4739,0.4733,0.4722,0.472,0.4718,0.4717,0,0,0,0,0,0,0,0.521,0.5197,0.5083,0.5073,0.5063,0.5033,0.5017,0.4985,0.4894,0.4944,0.4936,0.4921,0.4809,0.4787,0.4779,0.4731,0.4722,0.4719,0.4716,0.4715,0.4684,0.4685,0,0,0,0,0,0,0.5229,0.5204,0.5087,0.5079,0.5128,0.5032,0.5014,0.4992,0.4894,0.4877,0.4923,0.4917,0.4795,0.4784,0.4773,0.4775,0.4718,0.4714,0.4712,0.4682,0.4684,0.4686,0,0,0,0,0,0,0.5233,0.522,0.5093,0.5139,0.5121,0.5031,0.5007,0.4991,0.4968,0.4878,0.4861,0.4917,0.4793,0.4779,0.4752,0.4769,0.4712,0.4709,0.468,0.4683,0.4685,0.4783,0,0,0,0,0,0,0.5238,0.5222,0.5227,0.514,0.5119,0.5076,0.5008,0.4989,0.4962,0.4952,0.4868,0.4852,0.479,0.4759,0.4749,0.4763,0.4706,0.4678,0.4681,0.4684,0.4778,0.4789,0.4798,0,0,0,0,0,0.5243,0.526,0.5227,0.5214,0.5123,0.5078,0.5065,0.4995,0.4964,0.4966,0.4908,0.4855,0.477,0.4757,0.4744,0.4758,0.4677,0.468,0.4684,0.4774,0.4787,0.4798,0,0,0,0,0,0,0.535,0.5247,0.521,0.5199,0.5148,0.5059,0.506,0.5012,0.4967,0.496,0.4874,0.4855,0.4837,0.4795,0.4783,0.476,0.4716,0.4717,0.4789,0.48,0.481,0.4819,0.4702,0,0,0,0,0,0.5373,0.5346,0.5257,0.5256,0.5232,0.5151,0.5129,0.5079,0.5022,0.4999,0.4939,0.4885,0.4845,0.4821,0.478,0.4772,0.4749,0.4774,0.4784,0.4793,0.4794,0.4782,0.479,0.4697,0.4697,0.4697,0,0,0.5419,0.5359,0.5348,0.5276,0.5231,0.5202,0.5134,0.5108,0.5085,0.4995,0.4965,0.4919,0.4852,0.4834,0.4823,0.4798,0.4815,0.4797,0.4805,0.4801,0.4786,0.4795,0.4803,0.47,0.4699,0.4699,0,0,0.5487,0.5441,0.5433,0.5389,0.532,0.5266,0.5264,0.5181,0.5147,0.5116,0.5047,0.5018,0.4953,0.4906,0.4875,0.4922,0.487,0.4911,0.4962,0.4951,0.4958,0.4964,0.4977,0.4983,0.4913,0.4914,0.4914,0,0.5552,0.5508,0.5435,0.5412,0.5381,0.5299,0.5287,0.5248,0.517,0.5149,0.5123,0.5036,0.4986,0.4953,0.4964,0.4943,0.4935,0.4919,0.4964,0.4969,0.4973,0.4984,0.499,0.4919,0.4918,0.4918,0.4917,0,0.5589,0.556,0.5561,0.5487,0.5457,0.544,0.5362,0.5339,0.5291,0.5239,0.5206,0.5142,0.5085,0.5074,0.5028,0.5033,0.5019,0.498,0.4933,0.4988,0.4997,0.5001,0.4926,0.4924,0.4923,0.4921,0,0,0.5721,0.5605,0.5606,0.557,0.5488,0.5462,0.5441,0.5385,0.5365,0.5314,0.529,0.5236,0.5197,0.5161,0.5109,0.51,0.5136,0.506,0.5057,0.5073,0.5133,0.5161,0.5167,0.5102,0.5102,0.5103,0.5137,0,0.5772,0.573,0.5662,0.564,0.5609,0.553,0.551,0.5456,0.5406,0.5371,0.5315,0.5276,0.523,0.5207,0.5195,0.5134,0.5146,0.5131,0.5075,0.5074,0.5091,0.5172,0.5202,0.5238,0.514,0.5141,0.5141,0,0.5827,0.5779,0.5755,0.5671,0.5656,0.564,0.5581,0.555,0.5486,0.5449,0.5408,0.535,0.5319,0.5279,0.5233,0.5224,0.5197,0.5164,0.5163,0.5153,0.5109,0.516,0.5248,0.5252,0.5147,0.5146,0.5146,0,0.592,0.585,0.5825,0.5797,0.57,0.569,0.5649,0.5583,0.5552,0.5501,0.5479,0.5425,0.5394,0.5352,0.528,0.5258,0.524,0.5195,0.5205,0.5207,0.5203,0.5204,0.5284,0.5193,0.5192,0.5192,0.5192,0,0.5983,0.597,0.5865,0.5849,0.5831,0.5752,0.5736,0.5687,0.5628,0.5599,0.5528,0.5502,0.541,0.5372,0.5316,0.5284,0.5272,0.5239,0.5223,0.5243,0.5247,0.5222,0.5216,0.5194,0.5193,0.5193,0.5193,0,0.6082,0.6012,0.5979,0.589,0.5867,0.5857,0.5779,0.5759,0.5705,0.5669,0.5656,0.5569,0.5521,0.5445,0.5375,0.5336,0.5312,0.5289,0.5334,0.5324,0.5338,0.5336,0.5402,0.5405,0.5316,0.5317,0.5318,0,0.6125,0.6113,0.6022,0.5998,0.596,0.5923,0.5891,0.5812,0.5781,0.5705,0.5694,0.564,0.5592,0.5518,0.5447,0.5392,0.5364,0.5391,0.5355,0.5374,0.5359,0.5359,0.5355,0.5398,0.54,0.5401,0.5402,0,0.6208,0.6173,0.6131,0.6075,0.604,0.5992,0.5941,0.5925,0.5834,0.5803,0.5753,0.5716,0.5643,0.5589,0.5523,0.5477,0.5423,0.5414,0.5413,0.5431,0.5456,0.5439,0.5353,0.5412,0.5411,0.541,0.541,0.5409,0.6277,0.6261,0.6194,0.6148,0.6101,0.6054,0.603,0.5972,0.593,0.5864,0.582,0.5772,0.5703,0.5609,0.5567,0.5525,0.5502,0.5502,0.5501,0.5501,0.5506,0.5466,0.5514,0.5513,0.5513,0.5512,0.5512,0,0.6352,0.6304,0.6263,0.6193,0.6157,0.6111,0.6051,0.6022,0.5981,0.5923,0.5877,0.5818,0.5764,0.5689,0.5629,0.561,0.5583,0.5596,0.5595,0.5584,0.5533,0.5538,0.5618,0.5618,0.5618,0.5618,0.5618,0.5618,0.6386,0.6355,0.6312,0.6256,0.6208,0.6161,0.613,0.6085,0.6038,0.5975,0.593,0.5882,0.5815,0.5749,0.5697,0.5675,0.5655,0.5675,0.5646,0.5598,0.5589,0.5579,0.5583,0.5672,0.5672,0.57,0.5701,0.5701]}]]